Year,Month,Day,Hour,Minute,Value (Times are PST for temperature in C)
2017,06,25,00,00,20.90
2017,06,25,00,01,21.00
2017,06,25,00,02,21.00
2017,06,25,00,03,21.00
2017,06,25,00,04,21.10
2017,06,25,00,05,21.10
2017,06,25,00,06,21.10
2017,06,25,00,07,21.00
2017,06,25,00,08,20.90
2017,06,25,00,09,20.90
2017,06,25,00,10,20.80
2017,06,25,00,11,20.70
2017,06,25,00,12,20.70
2017,06,25,00,13,20.60
2017,06,25,00,14,20.50
2017,06,25,00,15,20.40
2017,06,25,00,16,20.30
2017,06,25,00,17,20.20
2017,06,25,00,18,20.20
2017,06,25,00,19,20.10
2017,06,25,00,20,20.00
2017,06,25,00,21,19.90
2017,06,25,00,22,19.80
2017,06,25,00,23,19.70
2017,06,25,00,24,19.60
2017,06,25,00,25,19.50
2017,06,25,00,26,19.50
2017,06,25,00,27,19.40
2017,06,25,00,28,19.30
2017,06,25,00,29,19.30
2017,06,25,00,30,19.30
2017,06,25,00,31,19.30
2017,06,25,00,32,19.20
2017,06,25,00,33,19.20
2017,06,25,00,34,19.20
2017,06,25,00,35,19.20
2017,06,25,00,36,19.20
2017,06,25,00,37,19.20
2017,06,25,00,38,19.20
2017,06,25,00,39,19.20
2017,06,25,00,40,19.20
2017,06,25,00,41,19.20
2017,06,25,00,42,19.20
2017,06,25,00,43,19.30
2017,06,25,00,44,19.30
2017,06,25,00,45,19.30
2017,06,25,00,46,19.30
2017,06,25,00,47,19.30
2017,06,25,00,48,19.30
2017,06,25,00,49,19.30
2017,06,25,00,50,19.30
2017,06,25,00,51,19.20
2017,06,25,00,52,19.30
2017,06,25,00,53,19.30
2017,06,25,00,54,19.30
2017,06,25,00,55,19.30
2017,06,25,00,56,19.30
2017,06,25,00,57,19.30
2017,06,25,00,58,19.30
2017,06,25,00,59,19.40
2017,06,25,01,00,19.40
2017,06,25,01,01,19.40
2017,06,25,01,02,19.40
2017,06,25,01,03,19.40
2017,06,25,01,04,19.40
2017,06,25,01,05,19.40
2017,06,25,01,06,19.30
2017,06,25,01,07,19.30
2017,06,25,01,08,19.30
2017,06,25,01,09,19.30
2017,06,25,01,10,19.20
2017,06,25,01,11,19.20
2017,06,25,01,12,19.10
2017,06,25,01,13,19.10
2017,06,25,01,14,19.00
2017,06,25,01,15,18.90
2017,06,25,01,16,18.90
2017,06,25,01,17,18.80
2017,06,25,01,18,18.80
2017,06,25,01,19,18.70
2017,06,25,01,20,18.70
2017,06,25,01,21,18.60
2017,06,25,01,22,18.60
2017,06,25,01,23,18.50
2017,06,25,01,24,18.50
2017,06,25,01,25,18.40
2017,06,25,01,26,18.30
2017,06,25,01,27,18.30
2017,06,25,01,28,18.30
2017,06,25,01,29,18.30
2017,06,25,01,30,18.20
2017,06,25,01,31,18.20
2017,06,25,01,32,18.20
2017,06,25,01,33,18.10
2017,06,25,01,34,18.10
2017,06,25,01,35,18.10
2017,06,25,01,36,18.10
2017,06,25,01,37,18.10
2017,06,25,01,38,18.00
2017,06,25,01,39,18.00
2017,06,25,01,40,17.90
2017,06,25,01,41,17.90
2017,06,25,01,42,17.90
2017,06,25,01,43,17.80
2017,06,25,01,44,17.80
2017,06,25,01,45,17.80
2017,06,25,01,46,17.70
2017,06,25,01,47,17.70
2017,06,25,01,48,17.70
2017,06,25,01,49,17.60
2017,06,25,01,50,17.60
2017,06,25,01,51,17.60
2017,06,25,01,52,17.50
2017,06,25,01,53,17.50
2017,06,25,01,54,17.50
2017,06,25,01,55,17.40
2017,06,25,01,56,17.40
2017,06,25,01,57,17.40
2017,06,25,01,58,17.40
2017,06,25,01,59,17.30
2017,06,25,02,00,17.30
2017,06,25,02,01,17.30
2017,06,25,02,02,17.30
2017,06,25,02,03,17.30
2017,06,25,02,04,17.30
2017,06,25,02,05,17.20
2017,06,25,02,06,17.20
2017,06,25,02,07,17.20
2017,06,25,02,08,17.20
2017,06,25,02,09,17.20
2017,06,25,02,10,17.20
2017,06,25,02,11,17.30
2017,06,25,02,12,17.30
2017,06,25,02,13,17.30
2017,06,25,02,14,17.40
2017,06,25,02,15,17.40
2017,06,25,02,16,17.50
2017,06,25,02,17,17.50
2017,06,25,02,18,17.50
2017,06,25,02,19,17.60
2017,06,25,02,20,17.60
2017,06,25,02,21,17.60
2017,06,25,02,22,17.60
2017,06,25,02,23,17.60
2017,06,25,02,24,17.60
2017,06,25,02,25,17.60
2017,06,25,02,26,17.60
2017,06,25,02,27,17.60
2017,06,25,02,28,17.60
2017,06,25,02,29,17.60
2017,06,25,02,30,17.60
2017,06,25,02,31,17.60
2017,06,25,02,32,17.70
2017,06,25,02,33,17.70
2017,06,25,02,34,17.70
2017,06,25,02,35,17.80
2017,06,25,02,36,17.80
2017,06,25,02,37,17.90
2017,06,25,02,38,17.90
2017,06,25,02,39,17.90
2017,06,25,02,40,17.90
2017,06,25,02,41,18.00
2017,06,25,02,42,18.00
2017,06,25,02,43,18.00
2017,06,25,02,44,18.10
2017,06,25,02,45,18.10
2017,06,25,02,46,18.10
2017,06,25,02,47,18.10
2017,06,25,02,48,18.10
2017,06,25,02,49,18.20
2017,06,25,02,50,18.20
2017,06,25,02,51,18.10
2017,06,25,02,52,18.10
2017,06,25,02,53,18.00
2017,06,25,02,54,18.00
2017,06,25,02,55,17.90
2017,06,25,02,56,17.80
2017,06,25,02,57,17.80
2017,06,25,02,58,17.70
2017,06,25,02,59,17.70
2017,06,25,03,00,17.70
2017,06,25,03,01,17.60
2017,06,25,03,02,17.60
2017,06,25,03,03,17.50
2017,06,25,03,04,17.50
2017,06,25,03,05,17.40
2017,06,25,03,06,17.40
2017,06,25,03,07,17.40
2017,06,25,03,08,17.40
2017,06,25,03,09,17.30
2017,06,25,03,10,17.30
2017,06,25,03,11,17.30
2017,06,25,03,12,17.30
2017,06,25,03,13,17.20
2017,06,25,03,14,17.20
2017,06,25,03,15,17.20
2017,06,25,03,16,17.20
2017,06,25,03,17,17.10
2017,06,25,03,18,17.10
2017,06,25,03,19,17.10
2017,06,25,03,20,17.10
2017,06,25,03,21,17.10
2017,06,25,03,22,17.00
2017,06,25,03,23,17.00
2017,06,25,03,24,17.00
2017,06,25,03,25,17.00
2017,06,25,03,26,16.90
2017,06,25,03,27,16.90
2017,06,25,03,28,16.90
2017,06,25,03,29,16.90
2017,06,25,03,30,16.90
2017,06,25,03,31,16.90
2017,06,25,03,32,16.80
2017,06,25,03,33,16.80
2017,06,25,03,34,16.80
2017,06,25,03,35,16.80
2017,06,25,03,36,16.80
2017,06,25,03,37,16.80
2017,06,25,03,38,16.80
2017,06,25,03,39,16.70
2017,06,25,03,40,16.70
2017,06,25,03,41,16.70
2017,06,25,03,42,16.70
2017,06,25,03,43,16.60
2017,06,25,03,44,16.60
2017,06,25,03,45,16.50
2017,06,25,03,46,16.50
2017,06,25,03,47,16.40
2017,06,25,03,48,16.40
2017,06,25,03,49,16.40
2017,06,25,03,50,16.30
2017,06,25,03,51,16.30
2017,06,25,03,52,16.30
2017,06,25,03,53,16.30
2017,06,25,03,54,16.30
2017,06,25,03,55,16.30
2017,06,25,03,56,16.20
2017,06,25,03,57,16.20
2017,06,25,03,58,16.20
2017,06,25,03,59,16.20
2017,06,25,04,00,16.20
2017,06,25,04,01,16.20
2017,06,25,04,02,16.20
2017,06,25,04,03,16.20
2017,06,25,04,04,16.20
2017,06,25,04,05,16.20
2017,06,25,04,06,16.10
2017,06,25,04,07,16.20
2017,06,25,04,08,16.20
2017,06,25,04,09,16.20
2017,06,25,04,10,16.20
2017,06,25,04,11,16.20
2017,06,25,04,12,16.20
2017,06,25,04,13,16.20
2017,06,25,04,14,16.20
2017,06,25,04,15,16.30
2017,06,25,04,16,16.30
2017,06,25,04,17,16.30
2017,06,25,04,18,16.30
2017,06,25,04,19,16.30
2017,06,25,04,20,16.30
2017,06,25,04,21,16.40
2017,06,25,04,22,16.40
2017,06,25,04,23,16.40
2017,06,25,04,24,16.40
2017,06,25,04,25,16.50
2017,06,25,04,26,16.50
2017,06,25,04,27,16.50
2017,06,25,04,28,16.50
2017,06,25,04,29,16.50
2017,06,25,04,30,16.60
2017,06,25,04,31,16.60
2017,06,25,04,32,16.60
2017,06,25,04,33,16.60
2017,06,25,04,34,16.60
2017,06,25,04,35,16.50
2017,06,25,04,36,16.50
2017,06,25,04,37,16.50
2017,06,25,04,38,16.50
2017,06,25,04,39,16.40
2017,06,25,04,40,16.40
2017,06,25,04,41,16.40
2017,06,25,04,42,16.40
2017,06,25,04,43,16.40
2017,06,25,04,44,16.40
2017,06,25,04,45,16.40
2017,06,25,04,46,16.40
2017,06,25,04,47,16.40
2017,06,25,04,48,16.40
2017,06,25,04,49,16.40
2017,06,25,04,50,16.40
2017,06,25,04,51,16.40
2017,06,25,04,52,16.40
2017,06,25,04,53,16.40
2017,06,25,04,54,16.40
2017,06,25,04,55,16.40
2017,06,25,04,56,16.40
2017,06,25,04,57,16.40
2017,06,25,04,58,16.40
2017,06,25,04,59,16.40
2017,06,25,05,00,16.40
2017,06,25,05,01,16.40
2017,06,25,05,02,16.30
2017,06,25,05,03,16.30
2017,06,25,05,04,16.30
2017,06,25,05,05,16.30
2017,06,25,05,06,16.30
2017,06,25,05,07,16.30
2017,06,25,05,08,16.20
2017,06,25,05,09,16.20
2017,06,25,05,10,16.20
2017,06,25,05,11,16.20
2017,06,25,05,12,16.20
2017,06,25,05,13,16.20
2017,06,25,05,14,16.20
2017,06,25,05,15,16.20
2017,06,25,05,16,16.20
2017,06,25,05,17,16.20
2017,06,25,05,18,16.20
2017,06,25,05,19,16.20
2017,06,25,05,20,16.20
2017,06,25,05,21,16.20
2017,06,25,05,22,16.20
2017,06,25,05,23,16.20
2017,06,25,05,24,16.20
2017,06,25,05,25,16.10
2017,06,25,05,26,16.10
2017,06,25,05,27,16.10
2017,06,25,05,28,16.10
2017,06,25,05,29,16.10
2017,06,25,05,30,16.10
2017,06,25,05,31,16.10
2017,06,25,05,32,16.00
2017,06,25,05,33,16.00
2017,06,25,05,34,16.00
2017,06,25,05,35,16.00
2017,06,25,05,36,15.90
2017,06,25,05,37,15.90
2017,06,25,05,38,15.90
2017,06,25,05,39,15.90
2017,06,25,05,40,15.90
2017,06,25,05,41,16.00
2017,06,25,05,42,16.00
2017,06,25,05,43,16.00
2017,06,25,05,44,16.00
2017,06,25,05,45,16.00
2017,06,25,05,46,15.90
2017,06,25,05,47,15.90
2017,06,25,05,48,15.80
2017,06,25,05,49,15.80
2017,06,25,05,50,15.80
2017,06,25,05,51,15.70
2017,06,25,05,52,15.70
2017,06,25,05,53,15.70
2017,06,25,05,54,15.70
2017,06,25,05,55,15.70
2017,06,25,05,56,15.70
2017,06,25,05,57,15.70
2017,06,25,05,58,15.70
2017,06,25,05,59,15.70
2017,06,25,06,00,15.70
2017,06,25,06,01,15.80
2017,06,25,06,02,15.80
2017,06,25,06,03,15.80
2017,06,25,06,04,15.80
2017,06,25,06,05,15.80
2017,06,25,06,06,15.80
2017,06,25,06,07,15.90
2017,06,25,06,08,15.90
2017,06,25,06,09,16.00
2017,06,25,06,10,16.00
2017,06,25,06,11,16.10
2017,06,25,06,12,16.10
2017,06,25,06,13,16.10
2017,06,25,06,14,16.10
2017,06,25,06,15,16.20
2017,06,25,06,16,16.20
2017,06,25,06,17,16.20
2017,06,25,06,18,16.30
2017,06,25,06,19,16.30
2017,06,25,06,20,16.40
2017,06,25,06,21,16.40
2017,06,25,06,22,16.50
2017,06,25,06,23,16.50
2017,06,25,06,24,16.60
2017,06,25,06,25,16.70
2017,06,25,06,26,16.70
2017,06,25,06,27,16.80
2017,06,25,06,28,16.80
2017,06,25,06,29,16.80
2017,06,25,06,30,16.90
2017,06,25,06,31,17.00
2017,06,25,06,32,17.00
2017,06,25,06,33,17.10
2017,06,25,06,34,17.20
2017,06,25,06,35,17.20
2017,06,25,06,36,17.20
2017,06,25,06,37,17.30
2017,06,25,06,38,17.30
2017,06,25,06,39,17.30
2017,06,25,06,40,17.20
2017,06,25,06,41,17.20
2017,06,25,06,42,17.10
2017,06,25,06,43,17.10
2017,06,25,06,44,17.00
2017,06,25,06,45,16.90
2017,06,25,06,46,16.90
2017,06,25,06,47,16.80
2017,06,25,06,48,16.80
2017,06,25,06,49,16.80
2017,06,25,06,50,16.80
2017,06,25,06,51,16.80
2017,06,25,06,52,16.80
2017,06,25,06,53,16.80
2017,06,25,06,54,16.80
2017,06,25,06,55,16.90
2017,06,25,06,56,17.00
2017,06,25,06,57,17.10
2017,06,25,06,58,17.20
2017,06,25,06,59,17.30
2017,06,25,07,00,17.40
2017,06,25,07,01,17.60
2017,06,25,07,02,17.80
2017,06,25,07,03,17.90
2017,06,25,07,04,18.10
2017,06,25,07,05,18.20
2017,06,25,07,06,18.40
2017,06,25,07,07,18.50
2017,06,25,07,08,18.60
2017,06,25,07,09,18.80
2017,06,25,07,10,18.90
2017,06,25,07,11,19.00
2017,06,25,07,12,19.10
2017,06,25,07,13,19.20
2017,06,25,07,14,19.30
2017,06,25,07,15,19.30
2017,06,25,07,16,19.40
2017,06,25,07,17,19.40
2017,06,25,07,18,19.50
2017,06,25,07,19,19.60
2017,06,25,07,20,19.60
2017,06,25,07,21,19.60
2017,06,25,07,22,19.60
2017,06,25,07,23,19.50
2017,06,25,07,24,19.50
2017,06,25,07,25,19.50
2017,06,25,07,26,19.40
2017,06,25,07,27,19.40
2017,06,25,07,28,19.40
2017,06,25,07,29,19.40
2017,06,25,07,30,19.40
2017,06,25,07,31,19.50
2017,06,25,07,32,19.50
2017,06,25,07,33,19.50
2017,06,25,07,34,19.60
2017,06,25,07,35,19.60
2017,06,25,07,36,19.60
2017,06,25,07,37,19.60
2017,06,25,07,38,19.60
2017,06,25,07,39,19.60
2017,06,25,07,40,19.60
2017,06,25,07,41,19.60
2017,06,25,07,42,19.60
2017,06,25,07,43,19.60
2017,06,25,07,44,19.60
2017,06,25,07,45,19.60
2017,06,25,07,46,19.50
2017,06,25,07,47,19.50
2017,06,25,07,48,19.50
2017,06,25,07,49,19.50
2017,06,25,07,50,19.60
2017,06,25,07,51,19.60
2017,06,25,07,52,19.70
2017,06,25,07,53,19.80
2017,06,25,07,54,19.90
2017,06,25,07,55,20.00
2017,06,25,07,56,20.00
2017,06,25,07,57,20.10
2017,06,25,07,58,20.20
2017,06,25,07,59,20.20
2017,06,25,08,00,20.30
2017,06,25,08,01,20.40
2017,06,25,08,02,20.50
2017,06,25,08,03,20.60
2017,06,25,08,04,20.70
2017,06,25,08,05,20.80
2017,06,25,08,06,20.90
2017,06,25,08,07,21.00
2017,06,25,08,08,21.10
2017,06,25,08,09,21.20
2017,06,25,08,10,21.30
2017,06,25,08,11,21.40
2017,06,25,08,12,21.40
2017,06,25,08,13,21.40
2017,06,25,08,14,21.40
2017,06,25,08,15,21.40
2017,06,25,08,16,21.30
2017,06,25,08,17,21.30
2017,06,25,08,18,21.30
2017,06,25,08,19,21.20
2017,06,25,08,20,21.20
2017,06,25,08,21,21.20
2017,06,25,08,22,21.20
2017,06,25,08,23,21.30
2017,06,25,08,24,21.30
2017,06,25,08,25,21.30
2017,06,25,08,26,21.40
2017,06,25,08,27,21.40
2017,06,25,08,28,21.40
2017,06,25,08,29,21.50
2017,06,25,08,30,21.60
2017,06,25,08,31,21.70
2017,06,25,08,32,21.90
2017,06,25,08,33,22.00
2017,06,25,08,34,22.20
2017,06,25,08,35,22.40
2017,06,25,08,36,22.70
2017,06,25,08,37,22.90
2017,06,25,08,38,23.10
2017,06,25,08,39,23.30
2017,06,25,08,40,23.50
2017,06,25,08,41,23.70
2017,06,25,08,42,23.80
2017,06,25,08,43,23.90
2017,06,25,08,44,24.00
2017,06,25,08,45,24.10
2017,06,25,08,46,24.20
2017,06,25,08,47,24.30
2017,06,25,08,48,24.40
2017,06,25,08,49,24.50
2017,06,25,08,50,24.60
2017,06,25,08,51,24.60
2017,06,25,08,52,24.60
2017,06,25,08,53,24.70
2017,06,25,08,54,24.70
2017,06,25,08,55,24.70
2017,06,25,08,56,24.80
2017,06,25,08,57,24.80
2017,06,25,08,58,24.90
2017,06,25,08,59,24.90
2017,06,25,09,00,25.00
2017,06,25,09,01,25.10
2017,06,25,09,02,25.10
2017,06,25,09,03,25.20
2017,06,25,09,04,25.20
2017,06,25,09,05,25.20
2017,06,25,09,06,25.30
2017,06,25,09,07,25.30
2017,06,25,09,08,25.20
2017,06,25,09,09,25.20
2017,06,25,09,10,25.20
2017,06,25,09,11,25.20
2017,06,25,09,12,25.20
2017,06,25,09,13,25.20
2017,06,25,09,14,25.20
2017,06,25,09,15,25.20
2017,06,25,09,16,25.20
2017,06,25,09,17,25.20
2017,06,25,09,18,25.30
2017,06,25,09,19,25.30
2017,06,25,09,20,25.30
2017,06,25,09,21,25.40
2017,06,25,09,22,25.40
2017,06,25,09,23,25.40
2017,06,25,09,24,25.40
2017,06,25,09,25,25.40
2017,06,25,09,26,25.40
2017,06,25,09,27,25.40
2017,06,25,09,28,25.30
2017,06,25,09,29,25.30
2017,06,25,09,30,25.30
2017,06,25,09,31,25.40
2017,06,25,09,32,25.40
2017,06,25,09,33,25.50
2017,06,25,09,34,25.60
2017,06,25,09,35,25.60
2017,06,25,09,36,25.60
2017,06,25,09,37,25.70
2017,06,25,09,38,25.70
2017,06,25,09,39,25.70
2017,06,25,09,40,25.70
2017,06,25,09,41,25.70
2017,06,25,09,42,25.70
2017,06,25,09,43,25.70
2017,06,25,09,44,25.70
2017,06,25,09,45,25.70
2017,06,25,09,46,25.70
2017,06,25,09,47,25.80
2017,06,25,09,48,25.80
2017,06,25,09,49,25.80
2017,06,25,09,50,25.70
2017,06,25,09,51,25.70
2017,06,25,09,52,25.70
2017,06,25,09,53,25.70
2017,06,25,09,54,25.60
2017,06,25,09,55,25.60
2017,06,25,09,56,25.60
2017,06,25,09,57,25.60
2017,06,25,09,58,25.60
2017,06,25,09,59,25.70
2017,06,25,10,00,25.70
2017,06,25,10,01,25.80
2017,06,25,10,02,25.80
2017,06,25,10,03,25.90
2017,06,25,10,04,25.90
2017,06,25,10,05,26.00
2017,06,25,10,06,26.00
2017,06,25,10,07,26.10
2017,06,25,10,08,26.10
2017,06,25,10,09,26.20
2017,06,25,10,10,26.20
2017,06,25,10,11,26.30
2017,06,25,10,12,26.30
2017,06,25,10,13,26.40
2017,06,25,10,14,26.40
2017,06,25,10,15,26.50
2017,06,25,10,16,26.50
2017,06,25,10,17,26.60
2017,06,25,10,18,26.50
2017,06,25,10,19,26.50
2017,06,25,10,20,26.50
2017,06,25,10,21,26.50
2017,06,25,10,22,26.50
2017,06,25,10,23,26.50
2017,06,25,10,24,26.50
2017,06,25,10,25,26.60
2017,06,25,10,26,26.70
2017,06,25,10,27,26.70
2017,06,25,10,28,26.70
2017,06,25,10,29,26.60
2017,06,25,10,30,26.60
2017,06,25,10,31,26.50
2017,06,25,10,32,26.50
2017,06,25,10,33,26.40
2017,06,25,10,34,26.40
2017,06,25,10,35,26.30
2017,06,25,10,36,26.30
2017,06,25,10,37,26.20
2017,06,25,10,38,26.20
2017,06,25,10,39,26.10
2017,06,25,10,40,26.10
2017,06,25,10,41,26.10
2017,06,25,10,42,26.10
2017,06,25,10,43,26.10
2017,06,25,10,44,26.20
2017,06,25,10,45,26.30
2017,06,25,10,46,26.40
2017,06,25,10,47,26.50
2017,06,25,10,48,26.50
2017,06,25,10,49,26.50
2017,06,25,10,50,26.50
2017,06,25,10,51,26.50
2017,06,25,10,52,26.50
2017,06,25,10,53,26.50
2017,06,25,10,54,26.60
2017,06,25,10,55,26.60
2017,06,25,10,56,26.60
2017,06,25,10,57,26.60
2017,06,25,10,58,26.60
2017,06,25,10,59,26.70
2017,06,25,11,00,26.70
2017,06,25,11,01,26.70
2017,06,25,11,02,26.70
2017,06,25,11,03,26.70
2017,06,25,11,04,26.70
2017,06,25,11,05,26.70
2017,06,25,11,06,26.70
2017,06,25,11,07,26.70
2017,06,25,11,08,26.80
2017,06,25,11,09,26.80
2017,06,25,11,10,26.80
2017,06,25,11,11,26.80
2017,06,25,11,12,26.80
2017,06,25,11,13,26.70
2017,06,25,11,14,26.70
2017,06,25,11,15,26.70
2017,06,25,11,16,26.70
2017,06,25,11,17,26.70
2017,06,25,11,18,26.70
2017,06,25,11,19,26.70
2017,06,25,11,20,26.70
2017,06,25,11,21,26.70
2017,06,25,11,22,26.70
2017,06,25,11,23,26.70
2017,06,25,11,24,26.70
2017,06,25,11,25,26.60
2017,06,25,11,26,26.50
2017,06,25,11,27,26.50
2017,06,25,11,28,26.40
2017,06,25,11,29,26.40
2017,06,25,11,30,26.40
2017,06,25,11,31,26.40
2017,06,25,11,32,26.40
2017,06,25,11,33,26.40
2017,06,25,11,34,26.40
2017,06,25,11,35,26.40
2017,06,25,11,36,26.40
2017,06,25,11,37,26.40
2017,06,25,11,38,26.40
2017,06,25,11,39,26.30
2017,06,25,11,40,26.40
2017,06,25,11,41,26.40
2017,06,25,11,42,26.40
2017,06,25,11,43,26.50
2017,06,25,11,44,26.60
2017,06,25,11,45,26.60
2017,06,25,11,46,26.70
2017,06,25,11,47,26.80
2017,06,25,11,48,26.80
2017,06,25,11,49,26.80
2017,06,25,11,50,26.90
2017,06,25,11,51,26.90
2017,06,25,11,52,26.90
2017,06,25,11,53,26.90
2017,06,25,11,54,26.90
2017,06,25,11,55,26.90
2017,06,25,11,56,26.90
2017,06,25,11,57,26.90
2017,06,25,11,58,26.90
2017,06,25,11,59,26.90
2017,06,25,12,00,27.00
2017,06,25,12,01,27.00
2017,06,25,12,02,27.00
2017,06,25,12,03,27.10
2017,06,25,12,04,27.10
2017,06,25,12,05,27.20
2017,06,25,12,06,27.20
2017,06,25,12,07,27.20
2017,06,25,12,08,27.20
2017,06,25,12,09,27.20
2017,06,25,12,10,27.20
2017,06,25,12,11,27.20
2017,06,25,12,12,27.20
2017,06,25,12,13,27.20
2017,06,25,12,14,27.20
2017,06,25,12,15,27.10
2017,06,25,12,16,27.10
2017,06,25,12,17,27.10
2017,06,25,12,18,27.10
2017,06,25,12,19,27.10
2017,06,25,12,20,27.10
2017,06,25,12,21,27.20
2017,06,25,12,22,27.20
2017,06,25,12,23,27.30
2017,06,25,12,24,27.30
2017,06,25,12,25,27.40
2017,06,25,12,26,27.40
2017,06,25,12,27,27.40
2017,06,25,12,28,27.40
2017,06,25,12,29,27.40
2017,06,25,12,30,27.50
2017,06,25,12,31,27.50
2017,06,25,12,32,27.50
2017,06,25,12,33,27.50
2017,06,25,12,34,27.50
2017,06,25,12,35,27.50
2017,06,25,12,36,27.50
2017,06,25,12,37,27.50
2017,06,25,12,38,27.50
2017,06,25,12,39,27.50
2017,06,25,12,40,27.60
2017,06,25,12,41,27.60
2017,06,25,12,42,27.60
2017,06,25,12,43,27.60
2017,06,25,12,44,27.60
2017,06,25,12,45,27.70
2017,06,25,12,46,27.70
2017,06,25,12,47,27.80
2017,06,25,12,48,27.80
2017,06,25,12,49,27.90
2017,06,25,12,50,28.00
2017,06,25,12,51,28.00
2017,06,25,12,52,28.10
2017,06,25,12,53,28.10
2017,06,25,12,54,28.10
2017,06,25,12,55,28.10
2017,06,25,12,56,28.10
2017,06,25,12,57,28.10
2017,06,25,12,58,28.10
2017,06,25,12,59,28.10
2017,06,25,13,00,28.10
2017,06,25,13,01,28.00
2017,06,25,13,02,28.00
2017,06,25,13,03,28.00
2017,06,25,13,04,28.00
2017,06,25,13,05,28.10
2017,06,25,13,06,28.10
2017,06,25,13,07,28.10
2017,06,25,13,08,28.10
2017,06,25,13,09,28.10
2017,06,25,13,10,28.20
2017,06,25,13,11,28.20
2017,06,25,13,12,28.20
2017,06,25,13,13,28.20
2017,06,25,13,14,28.10
2017,06,25,13,15,28.10
2017,06,25,13,16,28.10
2017,06,25,13,17,28.10
2017,06,25,13,18,28.10
2017,06,25,13,19,28.10
2017,06,25,13,20,28.20
2017,06,25,13,21,28.20
2017,06,25,13,22,28.20
2017,06,25,13,23,28.30
2017,06,25,13,24,28.30
2017,06,25,13,25,28.30
2017,06,25,13,26,28.30
2017,06,25,13,27,28.30
2017,06,25,13,28,28.30
2017,06,25,13,29,28.00
2017,06,25,13,30,27.40
2017,06,25,13,31,26.70
2017,06,25,13,32,26.10
2017,06,25,13,33,25.50
2017,06,25,13,34,25.00
2017,06,25,13,35,24.40
2017,06,25,13,36,23.90
2017,06,25,13,37,23.50
2017,06,25,13,38,23.20
2017,06,25,13,39,23.10
2017,06,25,13,40,22.90
2017,06,25,13,41,22.90
2017,06,25,13,42,22.80
2017,06,25,13,43,22.80
2017,06,25,13,44,22.80
2017,06,25,13,45,22.70
2017,06,25,13,46,22.50
2017,06,25,13,47,22.20
2017,06,25,13,48,22.00
2017,06,25,13,49,21.70
2017,06,25,13,50,21.50
2017,06,25,13,51,21.30
2017,06,25,13,52,21.30
2017,06,25,13,53,21.30
2017,06,25,13,54,21.30
2017,06,25,13,55,21.40
2017,06,25,13,56,21.50
2017,06,25,13,57,21.70
2017,06,25,13,58,21.80
2017,06,25,13,59,21.90
2017,06,25,14,00,22.00
2017,06,25,14,01,22.00
2017,06,25,14,02,22.10
2017,06,25,14,03,22.10
2017,06,25,14,04,22.10
2017,06,25,14,05,22.20
2017,06,25,14,06,22.30
2017,06,25,14,07,22.40
2017,06,25,14,08,22.40
2017,06,25,14,09,22.40
2017,06,25,14,10,22.30
2017,06,25,14,11,22.30
2017,06,25,14,12,22.20
2017,06,25,14,13,22.20
2017,06,25,14,14,22.20
2017,06,25,14,15,22.10
2017,06,25,14,16,22.00
2017,06,25,14,17,21.90
2017,06,25,14,18,21.80
2017,06,25,14,19,21.80
2017,06,25,14,20,21.70
2017,06,25,14,21,21.70
2017,06,25,14,22,21.70
2017,06,25,14,23,21.80
2017,06,25,14,24,21.80
2017,06,25,14,25,21.80
2017,06,25,14,26,21.80
2017,06,25,14,27,21.80
2017,06,25,14,28,21.80
2017,06,25,14,29,21.90
2017,06,25,14,30,21.90
2017,06,25,14,31,21.90
2017,06,25,14,32,21.90
2017,06,25,14,33,22.00
2017,06,25,14,34,22.00
2017,06,25,14,35,22.10
2017,06,25,14,36,22.10
2017,06,25,14,37,22.20
2017,06,25,14,38,22.10
2017,06,25,14,39,22.10
2017,06,25,14,40,22.00
2017,06,25,14,41,21.90
2017,06,25,14,42,21.90
2017,06,25,14,43,21.90
2017,06,25,14,44,21.90
2017,06,25,14,45,21.80
2017,06,25,14,46,21.80
2017,06,25,14,47,21.80
2017,06,25,14,48,21.70
2017,06,25,14,49,21.70
2017,06,25,14,50,21.50
2017,06,25,14,51,21.40
2017,06,25,14,52,21.30
2017,06,25,14,53,21.10
2017,06,25,14,54,21.00
2017,06,25,14,55,21.00
2017,06,25,14,56,21.00
2017,06,25,14,57,21.00
2017,06,25,14,58,21.10
2017,06,25,14,59,21.20
2017,06,25,15,00,21.30
2017,06,25,15,01,21.30
2017,06,25,15,02,21.40
2017,06,25,15,03,21.30
2017,06,25,15,04,21.30
2017,06,25,15,05,21.20
2017,06,25,15,06,21.20
2017,06,25,15,07,21.20
2017,06,25,15,08,21.30
2017,06,25,15,09,21.30
2017,06,25,15,10,21.30
2017,06,25,15,11,21.30
2017,06,25,15,12,21.30
2017,06,25,15,13,21.30
2017,06,25,15,14,21.40
2017,06,25,15,15,21.40
2017,06,25,15,16,21.40
2017,06,25,15,17,21.40
2017,06,25,15,18,21.40
2017,06,25,15,19,21.50
2017,06,25,15,20,21.50
2017,06,25,15,21,21.50
2017,06,25,15,22,21.60
2017,06,25,15,23,21.60
2017,06,25,15,24,21.60
2017,06,25,15,25,21.60
2017,06,25,15,26,21.60
2017,06,25,15,27,21.60
2017,06,25,15,28,21.60
2017,06,25,15,29,21.70
2017,06,25,15,30,21.60
2017,06,25,15,31,21.60
2017,06,25,15,32,21.60
2017,06,25,15,33,21.50
2017,06,25,15,34,21.50
2017,06,25,15,35,21.40
2017,06,25,15,36,21.40
2017,06,25,15,37,21.40
2017,06,25,15,38,21.40
2017,06,25,15,39,21.40
2017,06,25,15,40,21.50
2017,06,25,15,41,21.50
2017,06,25,15,42,21.60
2017,06,25,15,43,21.70
2017,06,25,15,44,21.90
2017,06,25,15,45,22.00
2017,06,25,15,46,22.20
2017,06,25,15,47,22.40
2017,06,25,15,48,22.50
2017,06,25,15,49,22.70
2017,06,25,15,50,22.80
2017,06,25,15,51,23.00
2017,06,25,15,52,23.10
2017,06,25,15,53,23.10
2017,06,25,15,54,23.20
2017,06,25,15,55,23.30
2017,06,25,15,56,23.30
2017,06,25,15,57,23.40
2017,06,25,15,58,23.60
2017,06,25,15,59,23.70
2017,06,25,16,00,23.80
2017,06,25,16,01,24.00
2017,06,25,16,02,24.20
2017,06,25,16,03,24.30
2017,06,25,16,04,24.30
2017,06,25,16,05,24.20
2017,06,25,16,06,24.10
2017,06,25,16,07,24.00
2017,06,25,16,08,24.00
2017,06,25,16,09,23.90
2017,06,25,16,10,23.90
2017,06,25,16,11,23.90
2017,06,25,16,12,23.90
2017,06,25,16,13,24.00
2017,06,25,16,14,24.10
2017,06,25,16,15,24.20
2017,06,25,16,16,24.30
2017,06,25,16,17,24.30
2017,06,25,16,18,24.30
2017,06,25,16,19,24.40
2017,06,25,16,20,24.40
2017,06,25,16,21,24.40
2017,06,25,16,22,24.50
2017,06,25,16,23,24.50
2017,06,25,16,24,24.70
2017,06,25,16,25,24.70
2017,06,25,16,26,24.80
2017,06,25,16,27,24.90
2017,06,25,16,28,25.10
2017,06,25,16,29,25.20
2017,06,25,16,30,25.30
2017,06,25,16,31,25.40
2017,06,25,16,32,25.60
2017,06,25,16,33,25.70
2017,06,25,16,34,25.70
2017,06,25,16,35,25.70
2017,06,25,16,36,25.70
2017,06,25,16,37,25.60
2017,06,25,16,38,25.40
2017,06,25,16,39,25.30
2017,06,25,16,40,25.10
2017,06,25,16,41,25.00
2017,06,25,16,42,24.80
2017,06,25,16,43,24.70
2017,06,25,16,44,24.60
2017,06,25,16,45,24.50
2017,06,25,16,46,24.40
2017,06,25,16,47,24.30
2017,06,25,16,48,24.30
2017,06,25,16,49,24.20
2017,06,25,16,50,24.10
2017,06,25,16,51,24.10
2017,06,25,16,52,24.10
2017,06,25,16,53,24.20
2017,06,25,16,54,24.30
2017,06,25,16,55,24.30
2017,06,25,16,56,24.40
2017,06,25,16,57,24.40
2017,06,25,16,58,24.50
2017,06,25,16,59,24.50
2017,06,25,17,00,24.50
2017,06,25,17,01,24.50
2017,06,25,17,02,24.40
2017,06,25,17,03,24.40
2017,06,25,17,04,24.30
2017,06,25,17,05,24.30
2017,06,25,17,06,24.40
2017,06,25,17,07,24.40
2017,06,25,17,08,24.50
2017,06,25,17,09,24.60
2017,06,25,17,10,24.70
2017,06,25,17,11,24.80
2017,06,25,17,12,24.90
2017,06,25,17,13,24.90
2017,06,25,17,14,24.80
2017,06,25,17,15,24.80
2017,06,25,17,16,24.70
2017,06,25,17,17,24.60
2017,06,25,17,18,24.50
2017,06,25,17,19,24.50